Great Pine Lake Weather Center

Moon Phase Calendar



Great Pine Lake Water Level
Online Cameras

 


      

Current Conditions in Brook Highland
10/28/2020 5:16:13 PM

75°F
Feels Like 82
Rain
Humidity
89%
Pressure
29.83"
Wind
2 mph (WSW)
Dew Point
71°F
UV Index
5/10 (Moderate)
Visibility
5 mi

Hourly Forecast

Date & Time Wed, Oct 28
5:00 PM
Wed, Oct 28
6:00 PM
Wed, Oct 28
7:00 PM
Wed, Oct 28
8:00 PM
Wed, Oct 28
9:00 PM
Wed, Oct 28
10:00 PM
Wed, Oct 28
11:00 PM
Thu, Oct 29
12:00 AM
Thu, Oct 29
1:00 AM
Thu, Oct 29
2:00 AM
Thu, Oct 29
3:00 AM
Thu, Oct 29
4:00 AM
Thu, Oct 29
5:00 AM
Thu, Oct 29
6:00 AM
Thu, Oct 29
7:00 AM
Thu, Oct 29
8:00 AM
Thu, Oct 29
9:00 AM
Thu, Oct 29
10:00 AM
Thu, Oct 29
11:00 AM
Thu, Oct 29
12:00 PM
Thu, Oct 29
1:00 PM
Thu, Oct 29
2:00 PM
Thu, Oct 29
3:00 PM
Thu, Oct 29
4:00 PM
Thu, Oct 29
5:00 PM
Thu, Oct 29
6:00 PM
Thu, Oct 29
7:00 PM
Thu, Oct 29
8:00 PM
Thu, Oct 29
9:00 PM
Thu, Oct 29
10:00 PM
Thu, Oct 29
11:00 PM
Fri, Oct 30
12:00 AM
Fri, Oct 30
1:00 AM
Fri, Oct 30
2:00 AM
Fri, Oct 30
3:00 AM
Fri, Oct 30
4:00 AM
Fri, Oct 30
5:00 AM
Fri, Oct 30
6:00 AM
Fri, Oct 30
7:00 AM
Fri, Oct 30
8:00 AM
Fri, Oct 30
9:00 AM
Fri, Oct 30
10:00 AM
Fri, Oct 30
11:00 AM
Fri, Oct 30
12:00 PM
Fri, Oct 30
1:00 PM
Fri, Oct 30
2:00 PM
Fri, Oct 30
3:00 PM
Fri, Oct 30
4:00 PM
Condition
Rain

Clouds

Rain

Rain

Rain

Rain

Rain

Rain

Rain

Rain

Rain

Rain

Rain

Clouds

Rain

Rain

Rain

Rain

Clouds

Clouds

Clouds

Clear

Clear

Clear

Clear

Clear

Clear

Clear

Clear

Clear

Clouds

Clouds

Clouds

Clouds

Clouds

Clouds

Clouds

Clouds

Clouds

Clouds

Clouds

Clouds

Clouds

Clouds

Clouds

Clear

Clear

Clear
Temperature 75°F73°F72°F72°F71°F71°F71°F71°F71°F73°F74°F71°F71°F71°F71°F71°F71°F72°F74°F74°F73°F73°F72°F69°F64°F60°F58°F56°F54°F52°F53°F54°F53°F55°F56°F55°F54°F52°F51°F52°F52°F53°F56°F59°F61°F63°F63°F62°F
Feels Like 79°F77°F76°F75°F74°F73°F73°F68°F65°F67°F66°F67°F72°F72°F72°F71°F71°F72°F72°F71°F69°F69°F67°F62°F57°F53°F50°F47°F47°F44°F46°F49°F48°F50°F50°F49°F48°F47°F46°F45°F45°F46°F49°F52°F55°F56°F57°F56°F
Cloudiness 100%100%100%100%100%100%100%100%100%100%100%100%100%100%100%100%94%83%64%56%49%2%1%1%0%0%2%9%5%3%14%29%30%81%90%93%84%76%69%73%83%76%60%48%40%0%0%0%
Visibility 5 mi5 mi6 mi6 mi6 mi6 mi6 mi2 mi1 mi6 mi6 mi4 mi6 mi6 mi6 mi6 mi6 mi6 mi6 mi6 mi6 mi6 mi6 mi6 mi6 mi6 mi6 mi6 mi6 mi6 mi6 mi6 mi6 mi6 mi6 mi6 mi6 mi6 mi6 mi6 mi6 mi6 mi6 mi6 mi6 mi6 mi6 mi6 mi
Precipitation 100%80%100%96%100%100%100%100%100%97%100%100%100%80%100%99%97%95%74%88%84%0%0%0%0%0%0%0%0%0%0%0%0%0%0%0%0%0%0%0%0%0%0%0%0%0%0%0%
Humidity 89%91%93%92%94%93%94%94%95%92%86%93%93%93%92%91%88%81%74%68%62%55%49%51%56%60%62%66%68%73%77%77%83%81%78%77%80%83%84%79%75%71%66%60%55%52%53%56%
Dew Point 71°F70°F70°F69°F69°F69°F69°F70°F70°F71°F70°F69°F69°F69°F69°F68°F67°F66°F65°F63°F60°F56°F53°F51°F49°F47°F45°F45°F44°F44°F46°F48°F48°F50°F50°F49°F48°F47°F46°F46°F44°F44°F45°F45°F45°F45°F45°F46°F
Pressure 29.83"29.83"29.85"29.85"29.8"29.74"29.65"29.53"29.47"29.44"29.47"29.53"29.62"29.68"29.71"29.71"29.74"29.74"29.74"29.74"29.71"29.68"29.68"29.68"29.71"29.77"29.8"29.85"29.85"29.88"29.91"29.91"29.94"29.94"29.97"30"30.03"30.06"30.09"30.12"30.15"30.15"30.15"30.15"30.12"30.09"30.09"30.09"
Wind Speed 6.7 mph6.6 mph6.7 mph7.1 mph6.9 mph8.8 mph10.1 mph18.4 mph24.6 mph24.5 mph27 mph19.4 mph12.3 mph11.7 mph11.2 mph11 mph10.5 mph10 mph12.3 mph13 mph12.4 mph11.4 mph11 mph12.3 mph12.1 mph11 mph12.4 mph13 mph10.2 mph12.5 mph10.5 mph9 mph8.2 mph9 mph10.3 mph10 mph8.6 mph7.2 mph7.4 mph9.6 mph9.7 mph10.1 mph10.2 mph9.7 mph9.1 mph9.2 mph8.8 mph8.1 mph
Wind
Direction
187°
S
171°
S
147°
SSE
131°
SE
120°
ESE
116°
ESE
115°
ESE
109°
ESE
119°
ESE
196°
SSW
236°
SW
250°
WSW
244°
WSW
230°
SW
232°
SW
237°
WSW
248°
WSW
243°
WSW
238°
WSW
236°
SW
236°
SW
239°
WSW
235°
SW
249°
WSW
264°
W
270°
W
280°
W
284°
WNW
280°
W
289°
WNW
295°
WNW
305°
NW
301°
WNW
309°
NW
327°
NNW
328°
NNW
326°
NW
323°
NW
329°
NNW
339°
NNW
349°
N
357°
N
360°
N

N
357°
N
356°
N
356°
N
356°
N

Daily Forecast

Date High Low Precip. Humidity
Today
Oct 28

Rain
79 °F
70 °F
100%
76%
Thursday
Oct 29

Rain
73 °F
52 °F
100%
62%
Friday
Oct 30

Clouds
62 °F
50 °F
0%
55%
Saturday
Oct 31

Clouds
68 °F
46 °F
0%
61%
Sunday
Nov 1

Clouds
68 °F
50 °F
0%
48%
Monday
Nov 2

Clear
55 °F
37 °F
0%
40%
Tuesday
Nov 3

Clear
64 °F
38 °F
0%
29%
Wednesday
Nov 4

Clouds
68 °F
44 °F
0%
30%
Thursday
Nov 5

Clouds
69 °F
48 °F
0%
38%
Friday
Nov 6

Clouds
69 °F
50 °F
0%
41%
Saturday
Nov 7

Clouds
70 °F
51 °F
1%
49%
Sunday
Nov 8

Rain
72 °F
57 °F
32%
73%
Monday
Nov 9

Clouds
72 °F
61 °F
0%
75%
Tuesday
Nov 10

Clouds
76 °F
61 °F
0%
63%
Wednesday
Nov 11

Rain
72 °F
52 °F
68%
79%
Thursday
Nov 12

Clouds
64 °F
45 °F
0%
55%


Temperature 8-14 Day Outlook



Precipitation 8-14 Day Outlook




Quick Links
Great Pine Lake News
Great Pine Lake Photos
Great Pine Lake Videos




About Us
Contact Us
Site Map
Search Site
Advertise With Us
   
GreatPine.LakesOnline.com
THE GREAT PINE LAKE WEBSITE

Copyright 2020, Lakes Online
Privacy    |    Legal